sat.trackr.live / text

‹ back to catalog

STARLINK-34901

NORAD 65207 · 2025-176K

PAYLOAD ACTIVE UNKNOWN

§ Identity

Operator
Country
US
Launch date
2025-08-14
Launch site
AFETR
Launch vehicle
Mass (kg)
RCS (m²)

Purposes: comms

External: N2YO · Heavens-Above · Gunter

§ Orbital elements

Epoch: 2026-05-25T00:38:21.675264Z

Period
93.85 min
Inclination
53.1609°
Eccentricity
0.0001528
Mean motion
15.34411240 rev/d
Perigee alt
461.6 km
Apogee alt
463.7 km
Semi-major
6,840.8 km
B*
5.9749e-4
RAAN
157.7504°
Arg perigee
72.7175°
Mean anomaly
287.3995°
Rev number
4,481

§ Raw data

STARLINK-349011 65207U 25176K   26145.02663976  .00019872  00000+0  59749-3 0  99912 65207  53.1609 157.7504 0001528  72.7175 287.3995 15.34411240 44815

JSON: /api/v1/satellites/65207 · /tle

For live sub-satellite position, see the globe view (requires WebGL).

§ Visibility from observer

Set your observer location to see the next 7 days of passes ≥ 10°. The values pass through the URL so the page stays shareable.

No JS? Fill the form by hand. The geolocation button needs JavaScript.